This is the latest recevied weather packets stored in our database for station/object VY2CRA-4. If no packets are shown the sender has not sent any weather packets the latest 10 day(s).
| Time | Temp. | Humidity | Pressure | Rain* | Wind** | Luminosity | Snow |
|---|---|---|---|---|---|---|---|
| 1788371307 | 27.78° C | 20% | 1019.7 hPa | 0 mm | - | - | - |
| 1788370106 | 28.33° C | 18% | 1019.7 hPa | 0 mm | - | - | - |
| 1788368906 | 28.89° C | 17% | 1019.7 hPa | 0 mm | - | - | - |
| 1788367708 | 29.44° C | 15% | 1019.6 hPa | 0 mm | - | - | - |
| 1788365303 | 31.67° C | 10% | 1019.5 hPa | 0 mm | - | - | - |
| 1788364102 | 32.22° C | 8% | 1019.7 hPa | 0 mm | - | - | - |
| 1788361700 | 32.78° C | 10% | 1019.9 hPa | 0 mm | - | - | - |
| 1788360499 | 32.22° C | 12% | 1020 hPa | 0 mm | - | - | - |
| 1788354494 | 30° C | 18% | 1020.1 hPa | 0 mm | - | - | - |
| 1788352092 | 28.33° C | 21% | 1020.1 hPa | 0 mm | - | - | - |
| 1788350892 | 28.33° C | 22% | 1020.2 hPa | 0 mm | - | - | - |
| 1788348490 | 24.44° C | 35% | 1020.3 hPa | 0 mm | - | - | - |
| 1788347289 | 21.11° C | 45% | 1020.2 hPa | 0 mm | - | - | - |
| 1788344887 | 15.56° C | 59% | 1020.1 hPa | 0 mm | - | - | - |
| 1788342486 | 15.56° C | 58% | 1019.7 hPa | 0 mm | - | - | - |
| 1788341285 | 15.56° C | 58% | 1019.8 hPa | 0 mm | - | - | - |
| 1788338883 | 15.56° C | 58% | 1019.3 hPa | 0 mm | - | - | - |
| 1788337681 | 15.56° C | 58% | 1019.2 hPa | 0 mm | - | - | - |
| 1788335279 | 15.56° C | 56% | 1019 hPa | 0 mm | - | - | - |
| 1788334078 | 15.56° C | 56% | 1018.8 hPa | 0 mm | - | - | - |
| 1788332877 | 15.56° C | 55% | 1018.6 hPa | 0 mm | - | - | - |
| 1788330475 | 16.11° C | 54% | 1018.3 hPa | 0 mm | - | - | - |
| 1788329275 | 16.11° C | 54% | 1018.4 hPa | 0 mm | - | - | - |
| 1788325672 | 16.67° C | 53% | 1018.2 hPa | 0 mm | - | - | - |
| 1788324471 | 16.67° C | 53% | 1018.3 hPa | 0 mm | - | - | - |
* Rain since midnight (hover to see other rain measurements)
** Current wind speed in m/s (hover to see current wind gust speed)